[[{"header":{"parameterUnit":"m.s-1","parameterCategory":2,"la1":30.2991,"la2":30.254,"lo1":-89.0895,"lo2":-89.0444,"dy":0.0017,"dx":0.0017,"nx":28,"ny":28,"refTime":"2024-04-10T21:00:00:Z","depth":"0","parameterNumber":2,"parameterNumberName":"U-component_of_CURRENTS"},"data":[0,0,0,0,0,0,0,0,0,0,0,0,0,0,0,0,0,0,0,0,0,0,0,0,0,0,0,0,0,0,0,0,0,0,0,0,0,0,0,0,0,0,0,0,0,0,0,0,0,0,0,0,0,0,0,0,0,0,0.4165,0.4166,0,0.4232,0.4232,0.4233,0.4278,0.4279,0.428,0.428,0.4239,0.4238,0.4236,0,0,0,0,0,0,0,0,0,0,0,0,0,0.4095,0.4096,0.4165,0.4166,0.4167,0.4232,0.4232,0.4233,0.4278,0.4279,0.428,0.4281,0.424,0.4238,0.4236,0,0,0,0,0,0,0,0,0,0,0,0,0,0.4136,0.4096,0.4165,0.4201,0.4205,0.4231,0.4232,0.4233,0.4278,0.4279,0.428,0.4281,0.4241,0.4238,0.4236,0.4199,0,0,0.4228,0.4227,0,0,0,0,0,0,0,0,0.4134,0.4138,0.4194,0.4198,0.4203,0.4251,0.4193,0.4217,0.4278,0.4246,0.428,0.4282,0.4235,0.4233,0.4239,0.4197,0.4195,0.4227,0.4226,0.4225,0.4224,0,0,0,0,0,0,0,0.4131,0.4136,0.4188,0.4196,0.4201,0.422,0.4226,0.4198,0.4229,0.4249,0.4254,0.4267,0.4236,0.4242,0.4238,0.4195,0.4227,0.4225,0.4224,0.4223,0.4186,0.4186,0,0,0,0,0,0,0.4128,0.4133,0.4186,0.419,0.4175,0.422,0.4227,0.4232,0.4232,0.4235,0.4266,0.4269,0.4246,0.4241,0.4237,0.4228,0.4225,0.4222,0.4221,0.4185,0.4186,0.4187,0,0,0,0,0,0,0.4126,0.4132,0.4183,0.4167,0.4175,0.4221,0.4225,0.4232,0.4248,0.4246,0.4247,0.4275,0.4246,0.4241,0.4228,0.4225,0.4221,0.4219,0.4185,0.4185,0.4186,0.4186,0,0,0,0,0,0,0.4124,0.413,0.4131,0.4166,0.4176,0.4197,0.4225,0.4233,0.4256,0.426,0.4254,0.4251,0.4247,0.4232,0.4226,0.4221,0.4217,0.4184,0.4185,0.4186,0.4186,0.4187,0.4188,0,0,0,0,0,0.4121,0.4117,0.413,0.4137,0.4175,0.4197,0.4202,0.4237,0.4255,0.4255,0.4263,0.4252,0.4235,0.423,0.4222,0.4217,0.4183,0.4185,0.4186,0.4185,0.4187,0.4188,0,0,0,0,0,0,0.4085,0.4123,0.4138,0.4145,0.4169,0.4206,0.4213,0.4236,0.4244,0.4249,0.4248,0.4245,0.424,0.4228,0.4223,0.4214,0.4211,0.4211,0.4213,0.4214,0.4216,0.4252,0.4215,0,0,0,0,0,0.4078,0.4084,0.4122,0.4126,0.4138,0.4175,0.4189,0.4213,0.4229,0.4236,0.4231,0.4233,0.4236,0.4225,0.4222,0.4199,0.4229,0.4197,0.4199,0.42,0.4227,0.4271,0.428,0.4191,0.4191,0.4191,0,0,0.4068,0.4087,0.4092,0.4119,0.4141,0.416,0.4185,0.4206,0.4224,0.4224,0.4231,0.4233,0.4235,0.4229,0.4224,0.4216,0.4238,0.4201,0.4202,0.4229,0.4274,0.4283,0.429,0.4192,0.4191,0.4191,0,0,0.4048,0.4064,0.4066,0.4086,0.412,0.4146,0.4153,0.4186,0.4202,0.4203,0.4227,0.4237,0.4209,0.4233,0.4238,0.4242,0.425,0.4228,0.4252,0.4293,0.4301,0.4309,0.4348,0.4359,0.422,0.422,0.422,0,0.4039,0.4042,0.4068,0.4078,0.4098,0.414,0.4153,0.4176,0.4199,0.4217,0.4202,0.4231,0.4222,0.4258,0.4266,0.4246,0.4271,0.4239,0.4296,0.4304,0.4312,0.435,0.4363,0.422,0.422,0.422,0.422,0,0.4021,0.4031,0.4032,0.4062,0.4085,0.4099,0.4143,0.4162,0.418,0.4207,0.4236,0.4239,0.4265,0.4256,0.4258,0.4311,0.4312,0.4297,0.4292,0.4321,0.4359,0.4372,0.4221,0.4221,0.4221,0.422,0,0,0.3985,0.4016,0.4016,0.4026,0.4079,0.4092,0.4133,0.4179,0.4219,0.4227,0.4275,0.4284,0.4305,0.4316,0.4323,0.4356,0.4419,0.4349,0.4351,0.4389,0.4516,0.4483,0.4494,0.441,0.4412,0.4414,0.4517,0,0.3965,0.3966,0.3999,0.4015,0.4022,0.4083,0.4118,0.417,0.4214,0.4265,0.4299,0.4339,0.4323,0.4341,0.4374,0.4425,0.4455,0.4393,0.4483,0.4486,0.4454,0.4508,0.436,0.4437,0.453,0.4532,0.4534,0,0.3933,0.394,0.3943,0.399,0.4002,0.4028,0.4107,0.4148,0.4247,0.428,0.4343,0.4385,0.4461,0.4427,0.4532,0.4493,0.4511,0.4534,0.4538,0.4524,0.4478,0.4426,0.4457,0.4333,0.4553,0.4552,0.455,0,0.3868,0.3901,0.3898,0.3912,0.3976,0.4002,0.405,0.4148,0.42,0.4312,0.4373,0.4452,0.4516,0.4557,0.462,0.458,0.4732,0.4675,0.4662,0.4659,0.4563,0.4548,0.449,0.4741,0.4741,0.4741,0.474,0,0.3821,0.3817,0.3867,0.3863,0.3887,0.3955,0.401,0.4079,0.4196,0.4271,0.4381,0.4464,0.4555,0.4652,0.4665,0.4728,0.477,0.4698,0.4695,0.4557,0.4541,0.4452,0.439,0.4745,0.4744,0.4743,0.4742,0,0.3741,0.3768,0.3774,0.3833,0.3851,0.3873,0.3978,0.4022,0.4158,0.4271,0.4316,0.4502,0.4636,0.4727,0.4824,0.4799,0.4708,0.4846,0.4683,0.4659,0.449,0.4434,0.4228,0.4105,0.4838,0.4838,0.4838,0,0.369,0.3682,0.3736,0.3739,0.3763,0.3809,0.3841,0.3974,0.4044,0.4283,0.4334,0.4535,0.4645,0.4813,0.483,0.4877,0.4708,0.474,0.4629,0.4489,0.4425,0.4209,0.4104,0.4498,0.4495,0.4493,0.4491,0,0.3604,0.3632,0.3642,0.3653,0.3675,0.3704,0.3776,0.3819,0.3994,0.4128,0.4298,0.4418,0.4631,0.4641,0.4745,0.4742,0.4497,0.4693,0.4586,0.42,0.3924,0.38,0.4427,0.4471,0.4473,0.4474,0.4475,0.4476,0.3542,0.3532,0.355,0.3545,0.3568,0.3569,0.3549,0.3662,0.376,0.391,0.4134,0.4252,0.4425,0.456,0.4524,0.4402,0.436,0.427,0.4231,0.4038,0.3849,0.444,0.4453,0.4455,0.4456,0.4458,0.4459,0,0.3436,0.3429,0.3431,0.3411,0.3373,0.3434,0.3468,0.3433,0.3483,0.3701,0.3841,0.4007,0.4047,0.4126,0.4129,0.3972,0.375,0.3857,0.3517,0.3454,0.403,0.3947,0.3803,0.3804,0.3804,0.3804,0.3804,0.3804,0.3379,0.3326,0.3315,0.3204,0.3187,0.3088,0.3065,0.3067,0.3165,0.3268,0.3373,0.3536,0.3773,0.3834,0.3696,0.3602,0.3294,0.314,0.3118,0.3544,0.3578,0.361,0.3517,0.3285,0.3285,0.2389,0.2382,0.2377]},{"header":{"parameterUnit":"m.s-1","parameterCategory":2,"la1":30.2991,"la2":30.254,"lo1":-89.0895,"lo2":-89.0444,"dy":0.0017,"dx":0.0017,"nx":28,"ny":28,"refTime":"2024-04-10T21:00:00:Z","depth":"0","parameterNumber":3,"parameterNumberName":"V-component_of_CURRENTS"},"data":[0,0,0,0,0,0,0,0,0,0,0,0,0,0,0,0,0,0,0,0,0,0,0,0,0,0,0,0,0,0,0,0,0,0,0,0,0,0,0,0,0,0,0,0,0,0,0,0,0,0,0,0,0,0,0,0,0,0,0.0345,0.0344,0,0.0242,0.0241,0.0239,0.0157,0.0157,0.0156,0.0156,0.0047,0.0045,0.0042,0,0,0,0,0,0,0,0,0,0,0,0,0,0.0403,0.0402,0.0345,0.0344,0.0343,0.0243,0.0241,0.0239,0.0157,0.0157,0.0156,0.0156,0.0048,0.0045,0.0042,0,0,0,0,0,0,0,0,0,0,0,0,0,0.0344,0.0402,0.0345,0.0293,0.0287,0.0243,0.0241,0.0239,0.0158,0.0157,0.0156,0.0155,0.0049,0.0045,0.0042,0.0034,0,0,0.0031,0.0029,0,0,0,0,0,0,0,0,0.0347,0.0341,0.0301,0.0296,0.029,0.0215,0.0222,0.0171,0.0158,0.0203,0.0156,0.0155,0.0106,0.0097,0.0074,0.0029,0.0024,0.003,0.0028,0.0026,0.0025,0,0,0,0,0,0,0,0.0351,0.0345,0.03,0.0301,0.0294,0.0252,0.0243,0.0211,0.0157,0.0199,0.0194,0.0188,0.0102,0.0078,0.0071,0.0022,0.003,0.0027,0.0025,0.0023,-0.0043,-0.0042,0,0,0,0,0,0,0.0376,0.0349,0.0304,0.0298,0.0322,0.0252,0.0242,0.0237,0.0157,0.0145,0.0189,0.0185,0.0085,0.0076,0.0067,0.0071,0.0026,0.0023,0.0021,-0.0043,-0.0043,-0.0042,0,0,0,0,0,0,0.0377,0.0373,0.0308,0.0324,0.0313,0.0253,0.0247,0.0235,0.0218,0.015,0.0137,0.0185,0.0084,0.0072,0.0047,0.0065,0.0021,0.0018,-0.0044,-0.0043,-0.0043,0.0067,0,0,0,0,0,0,0.038,0.0374,0.038,0.0326,0.0313,0.0294,0.0248,0.0234,0.0217,0.0211,0.0143,0.0131,0.0082,0.0053,0.0044,0.0059,0.0015,-0.0044,-0.0044,-0.0043,0.0062,0.0071,0.0078,0,0,0,0,0,0.0382,0.0397,0.0381,0.0375,0.0323,0.0296,0.0285,0.0237,0.0218,0.0217,0.0171,0.0134,0.0051,0.0051,0.004,0.0055,-0.0045,-0.0044,-0.0043,0.0059,0.0069,0.0078,0,0,0,0,0,0,0.0422,0.0389,0.037,0.0372,0.0343,0.0283,0.028,0.0251,0.0212,0.0209,0.0143,0.0128,0.0109,0.0068,0.007,0.0036,-0.0004,-0.0005,0.0077,0.0086,0.0094,0.0121,0.0012,0,0,0,0,0,0.0437,0.044,0.0398,0.0401,0.0392,0.034,0.0324,0.0295,0.0255,0.0237,0.0189,0.0141,0.0103,0.0086,0.0042,0.0033,-0.0008,0.0032,0.004,0.0047,0.0061,0.0013,0.0018,-0.0039,-0.0039,-0.0039,0,0,0.0453,0.0436,0.0437,0.041,0.0382,0.0383,0.0328,0.0316,0.0316,0.0234,0.022,0.0168,0.0106,0.0087,0.0075,0.0057,0.0042,0.0048,0.0055,0.0065,0.0015,0.002,0.0025,-0.0038,-0.0039,-0.0039,0,0,0.0491,0.0475,0.0489,0.0474,0.0448,0.0422,0.0427,0.0379,0.0357,0.0337,0.0278,0.0244,0.0183,0.0144,0.0117,0.0145,0.0083,0.0127,0.0194,0.0148,0.0153,0.0156,0.0118,0.0118,0.0134,0.0135,0.0135,0,0.0511,0.0525,0.0489,0.05,0.0501,0.0449,0.047,0.0442,0.0392,0.0384,0.0349,0.0265,0.0212,0.0195,0.0198,0.0165,0.0129,0.0167,0.016,0.0163,0.0165,0.0124,0.0122,0.014,0.0139,0.0139,0.0138,0,0.0556,0.0569,0.058,0.0581,0.0576,0.0587,0.0554,0.0548,0.0517,0.0481,0.0452,0.0374,0.0327,0.0301,0.0257,0.0249,0.0215,0.0175,0.0143,0.0177,0.0132,0.0128,0.0148,0.0146,0.0144,0.0143,0,0,0.0597,0.061,0.0616,0.0638,0.0625,0.0631,0.0642,0.0635,0.0654,0.0586,0.0595,0.0515,0.0467,0.0433,0.0371,0.033,0.0308,0.0268,0.0263,0.0243,0.0212,0.0208,0.0202,0.0265,0.0265,0.0265,0.0178,0,0.0644,0.0696,0.0685,0.0741,0.0767,0.074,0.076,0.0747,0.072,0.0714,0.0631,0.0605,0.0519,0.0502,0.0449,0.0347,0.0301,0.0336,0.017,0.0166,0.0168,0.0199,0.0253,0.0181,0.0173,0.0173,0.0172,0,0.0693,0.0725,0.0791,0.0836,0.0846,0.0873,0.0909,0.0918,0.0892,0.0868,0.0823,0.0747,0.0686,0.0603,0.0451,0.0476,0.0357,0.0268,0.0261,0.0219,0.0154,0.0142,0.0173,0.0003,0.0165,0.0165,0.0166,0,0.075,0.0802,0.0866,0.0879,0.0916,0.0949,0.0971,0.0968,0.0999,0.0968,0.0986,0.0874,0.0844,0.0679,0.0493,0.0468,0.0325,0.026,0.0142,0.014,0.0135,0.0133,-0.0005,0.0147,0.0147,0.0147,0.0147,0,0.0808,0.0857,0.0905,0.0939,0.1032,0.1025,0.1113,0.1114,0.1135,0.1198,0.1076,0.1101,0.0861,0.0746,0.0546,0.0352,0.036,0.0167,0.0122,0.0174,0.0177,-0.0014,-0.011,0.0144,0.0145,0.0145,0.0146,0,0.0858,0.0883,0.0964,0.103,0.1062,0.113,0.1222,0.1279,0.1287,0.137,0.1368,0.1277,0.1136,0.0891,0.0637,0.0447,0.0149,0.0158,0.0243,0.021,-0.0065,-0.0156,-0.0328,-0.041,0.0013,0.0012,0.0012,0,0.0886,0.0935,0.1042,0.1103,0.114,0.124,0.1313,0.1355,0.143,0.1492,0.1547,0.144,0.1407,0.104,0.0682,0.0344,0.0152,0.0147,0.0099,-0.0057,-0.0193,-0.0253,-0.0314,0.013,0.013,0.0131,0.0131,0,0.0945,0.0986,0.1056,0.1188,0.1284,0.1402,0.1516,0.1604,0.1674,0.1759,0.1847,0.1828,0.1508,0.1209,0.0743,0.0486,0.0057,0.0145,-0.0043,-0.0123,-0.0173,-0.0278,0.0161,0.0135,0.0135,0.0135,0.0134,0.0134,0.0993,0.1058,0.1156,0.1283,0.1399,0.1553,0.1663,0.1801,0.196,0.2113,0.2084,0.2121,0.1697,0.1083,0.0712,0.0096,0.0071,-0.0093,-0.0194,-0.0244,-0.0308,0.015,0.0088,0.0087,0.0087,0.0086,0.0086,0,0.105,0.1125,0.124,0.1396,0.1529,0.1586,0.1789,0.1915,0.2127,0.2292,0.2388,0.2239,0.1704,0.1118,0.0307,-0.0143,-0.0315,-0.0399,-0.048,-0.0533,-0.0144,-0.0124,-0.0202,-0.0202,-0.0202,-0.0202,-0.0201,-0.0201,0.108,0.1194,0.1255,0.1478,0.159,0.1779,0.1902,0.211,0.228,0.2496,0.2566,0.2582,0.2179,0.0753,-0.0227,-0.0477,-0.0768,-0.0827,-0.1008,-0.0751,-0.073,-0.0711,-0.0715,-0.0916,-0.0917,-0.132,-0.1325,-0.1328]}],[{"header":{"parameterUnit":"m.s-1","parameterCategory":2,"la1":30.2991,"la2":30.254,"lo1":-89.0895,"lo2":-89.0444,"dy":0.0017,"dx":0.0017,"nx":28,"ny":28,"refTime":"2024-04-10T21:00:00:Z","depth":"2","parameterNumber":2,"parameterNumberName":"U-component_of_CURRENTS"},"data":[0,0,0,0,0,0,0,0,0,0,0,0,0,0,0,0,0,0,0,0,0,0,0,0,0,0,0,0,0,0,0,0,0,0,0,0,0,0,0,0,0,0,0,0,0,0,0,0,0,0,0,0,0,0,0,0,0,0,0.3602,0.3602,0,0.3605,0.3605,0.3605,0.3579,0.3579,0.3578,0.3578,0.3564,0.3564,0.3564,0,0,0,0,0,0,0,0,0,0,0,0,0,0.3567,0.3568,0.3602,0.3602,0.3602,0.3605,0.3605,0.3605,0.3579,0.3579,0.3578,0.3578,0.3564,0.3564,0.3564,0,0,0,0,0,0,0,0,0,0,0,0,0,0.3574,0.3568,0.3601,0.3592,0.3592,0.3606,0.3605,0.3605,0.3579,0.3579,0.3578,0.3577,0.3564,0.3564,0.3564,0.3576,0,0,0.3564,0.3564,0,0,0,0,0,0,0,0,0.3574,0.3575,0.3593,0.3593,0.3593,0.3594,0.3588,0.3596,0.3579,0.358,0.3578,0.3577,0.3575,0.3574,0.3571,0.3575,0.3575,0.3564,0.3564,0.3564,0.3564,0,0,0,0,0,0,0,0.3574,0.3575,0.3599,0.3594,0.3594,0.3587,0.3587,0.3589,0.3578,0.358,0.3579,0.3586,0.3574,0.3572,0.3571,0.3575,0.3564,0.3564,0.3564,0.3564,0.3637,0.3639,0,0,0,0,0,0,0.3582,0.3575,0.3599,0.36,0.3586,0.3588,0.3588,0.3591,0.3578,0.3577,0.3586,0.3584,0.3572,0.3571,0.357,0.3613,0.3564,0.3564,0.3564,0.3635,0.3638,0.364,0,0,0,0,0,0,0.3581,0.3584,0.3599,0.359,0.3592,0.359,0.3594,0.3592,0.3603,0.3584,0.3581,0.3601,0.3571,0.357,0.359,0.3611,0.3564,0.3564,0.3633,0.3636,0.3639,0.368,0,0,0,0,0,0,0.358,0.3583,0.359,0.3591,0.3593,0.3616,0.3595,0.3593,0.3609,0.3607,0.3596,0.3593,0.3571,0.359,0.359,0.361,0.3564,0.3631,0.3634,0.3638,0.3676,0.3684,0.369,0,0,0,0,0,0.3578,0.3586,0.359,0.3594,0.3602,0.3618,0.3618,0.3612,0.361,0.3619,0.3617,0.3594,0.3613,0.3592,0.3591,0.3612,0.3629,0.3633,0.3638,0.3673,0.3682,0.369,0,0,0,0,0,0,0.3569,0.3584,0.3589,0.3599,0.3615,0.3615,0.3624,0.3627,0.3633,0.3635,0.3614,0.3612,0.3642,0.3629,0.3606,0.3648,0.3619,0.3624,0.3647,0.3655,0.3662,0.3678,0.3564,0,0,0,0,0,0.3574,0.3586,0.3602,0.3612,0.3624,0.3631,0.3639,0.3641,0.3647,0.3649,0.3642,0.3645,0.3659,0.3658,0.3666,0.3683,0.3694,0.37,0.3708,0.3713,0.3729,0.3767,0.3779,0.3654,0.3654,0.3654,0,0,0.3574,0.3585,0.3591,0.3612,0.3623,0.3641,0.3633,0.3655,0.3671,0.3648,0.3667,0.3675,0.3675,0.3696,0.3708,0.3684,0.3757,0.3719,0.3724,0.3737,0.3773,0.3785,0.3795,0.3657,0.3657,0.3656,0,0,0.3575,0.3593,0.3602,0.3621,0.3648,0.3658,0.3673,0.3688,0.3697,0.3719,0.3718,0.3744,0.3745,0.3755,0.3758,0.3816,0.3803,0.3818,0.3852,0.3889,0.3899,0.3908,0.394,0.3952,0.3809,0.3809,0.3809,0,0.3576,0.3586,0.3608,0.3625,0.3642,0.3671,0.3688,0.3708,0.3727,0.3745,0.373,0.3776,0.3774,0.3816,0.3836,0.3831,0.3849,0.3812,0.3897,0.3906,0.3915,0.3946,0.3958,0.3812,0.3812,0.3811,0.3811,0,0.3578,0.3596,0.3607,0.3638,0.3663,0.3685,0.3721,0.3752,0.3769,0.3784,0.3834,0.3841,0.3867,0.3874,0.3869,0.3936,0.393,0.3908,0.3869,0.3929,0.3959,0.3971,0.3815,0.3815,0.3814,0.3813,0,0,0.3553,0.3599,0.3602,0.3615,0.3673,0.3686,0.3741,0.3787,0.3825,0.3849,0.3894,0.3927,0.3944,0.3954,0.396,0.399,0.4067,0.3978,0.3979,0.4002,0.4153,0.4096,0.4103,0.4057,0.4059,0.4061,0.4149,0,0.3547,0.3566,0.3601,0.363,0.3644,0.3704,0.3747,0.38,0.3846,0.3901,0.3937,0.3982,0.397,0.3994,0.4027,0.4071,0.4101,0.4045,0.41,0.4102,0.4036,0.4116,0.3791,0.3838,0.4161,0.4163,0.4164,0,0.353,0.3546,0.3566,0.3619,0.3634,0.3667,0.375,0.3796,0.3896,0.3933,0.3998,0.4035,0.4114,0.4082,0.4178,0.4144,0.416,0.4176,0.4179,0.4122,0.4067,0.3832,0.3848,0.4184,0.4182,0.4181,0.418,0,0.3472,0.3519,0.353,0.3548,0.3619,0.3654,0.3705,0.3804,0.3858,0.3972,0.4032,0.4108,0.417,0.4208,0.426,0.4227,0.4356,0.4304,0.4264,0.4259,0.3993,0.3961,0.4363,0.4363,0.4363,0.4363,0.4363,0,0.3437,0.3444,0.3505,0.3509,0.3543,0.3614,0.3678,0.3751,0.3868,0.394,0.4048,0.4122,0.4209,0.4291,0.4302,0.4339,0.439,0.4298,0.4288,0.3999,0.3969,0.427,0.4258,0.4366,0.4365,0.4365,0.4364,0,0.3365,0.3401,0.342,0.3491,0.3514,0.3544,0.3657,0.3703,0.3839,0.3948,0.3994,0.4163,0.4275,0.4351,0.4433,0.4398,0.4428,0.4417,0.4081,0.403,0.4292,0.4282,0.4381,0.4379,0.4379,0.4378,0.4377,0,0.3324,0.3324,0.3391,0.3401,0.3435,0.3493,0.353,0.3665,0.3732,0.3956,0.4002,0.4178,0.4258,0.4385,0.4366,0.4387,0.4444,0.4082,0.3956,0.4319,0.43,0.429,0.4281,0.3617,0.361,0.3605,0.36,0,0.325,0.3283,0.33,0.3325,0.3358,0.3393,0.3472,0.3517,0.3686,0.3798,0.394,0.403,0.4183,0.4068,0.4129,0.4087,0.4054,0.3971,0.4439,0.3674,0.3609,0.3587,0.3601,0.3551,0.3556,0.3559,0.3562,0.3564,0.3197,0.3193,0.3219,0.3227,0.326,0.3268,0.3254,0.3357,0.3439,0.3552,0.3745,0.377,0.3831,0.3761,0.3653,0.3575,0.3852,0.3656,0.3669,0.3688,0.3595,0.3534,0.3443,0.3447,0.3451,0.3454,0.3457,0,0.3102,0.3101,0.311,0.3104,0.3074,0.3143,0.3179,0.3136,0.3161,0.3306,0.3394,0.318,0.3132,0.3178,0.2992,0.3007,0.2926,0.287,0.2722,0.2778,0.2826,0.2681,0.2291,0.2286,0.2282,0.2278,0,0,0.3052,0.3007,0.2997,0.2902,0.29,0.2814,0.2796,0.2775,0.2821,0.2796,0.2789,0.3021,0.3123,0.2673,0.2625,0.2414,0.2562,0.232,0.3272,0.3156,0.3198,0.3317,0.3166,0,0,0,0,0]},{"header":{"parameterUnit":"m.s-1","parameterCategory":2,"la1":30.2991,"la2":30.254,"lo1":-89.0895,"lo2":-89.0444,"dy":0.0017,"dx":0.0017,"nx":28,"ny":28,"refTime":"2024-04-10T21:00:00:Z","depth":"2","parameterNumber":3,"parameterNumberName":"V-component_of_CURRENTS"},"data":[0,0,0,0,0,0,0,0,0,0,0,0,0,0,0,0,0,0,0,0,0,0,0,0,0,0,0,0,0,0,0,0,0,0,0,0,0,0,0,0,0,0,0,0,0,0,0,0,0,0,0,0,0,0,0,0,0,0,0.0364,0.0363,0,0.0292,0.0291,0.029,0.0248,0.0248,0.0248,0.0248,0.0155,0.0153,0.0151,0,0,0,0,0,0,0,0,0,0,0,0,0,0.0401,0.0401,0.0364,0.0363,0.0362,0.0292,0.0291,0.029,0.0248,0.0248,0.0248,0.0247,0.0156,0.0153,0.015,0,0,0,0,0,0,0,0,0,0,0,0,0,0.0362,0.0401,0.0364,0.0334,0.0331,0.0292,0.0291,0.0289,0.0248,0.0248,0.0248,0.0247,0.0157,0.0154,0.015,0.0129,0,0,0.0139,0.0137,0,0,0,0,0,0,0,0,0.0364,0.036,0.0339,0.0336,0.0332,0.028,0.027,0.0235,0.0248,0.0277,0.0248,0.0247,0.0196,0.0189,0.0174,0.0125,0.0121,0.0139,0.0136,0.0135,0.0134,0,0,0,0,0,0,0,0.0367,0.0363,0.0334,0.0338,0.0334,0.0303,0.0297,0.0263,0.0237,0.0275,0.0272,0.0266,0.0194,0.0178,0.0172,0.0119,0.0139,0.0135,0.0133,0.0132,0.0053,0.0053,0,0,0,0,0,0,0.0382,0.0366,0.0336,0.0332,0.035,0.0302,0.0296,0.0296,0.0237,0.0229,0.0267,0.0265,0.0184,0.0176,0.0168,0.0163,0.0135,0.0131,0.0129,0.0053,0.0053,0.0053,0,0,0,0,0,0,0.0383,0.038,0.0339,0.0348,0.0341,0.0302,0.0301,0.0294,0.0284,0.0231,0.0222,0.0265,0.0184,0.0173,0.0148,0.0158,0.013,0.0127,0.0052,0.0053,0.0053,0.0137,0,0,0,0,0,0,0.0385,0.0381,0.0387,0.0349,0.0341,0.0327,0.0301,0.0293,0.0281,0.0278,0.0227,0.0218,0.0183,0.0153,0.0144,0.0152,0.0124,0.0052,0.0053,0.0053,0.0134,0.014,0.0145,0,0,0,0,0,0.0387,0.04,0.0388,0.0384,0.035,0.0328,0.0321,0.0291,0.0282,0.0281,0.0248,0.022,0.0147,0.0151,0.014,0.0147,0.0052,0.0052,0.0053,0.0132,0.0139,0.0145,0,0,0,0,0,0,0.0419,0.0396,0.0382,0.0387,0.0363,0.0322,0.0321,0.03,0.0272,0.0272,0.0222,0.0211,0.0191,0.0156,0.0161,0.0123,0.0094,0.0092,0.0158,0.0164,0.017,0.0197,0.0121,0,0,0,0,0,0.0429,0.0434,0.0402,0.0406,0.0398,0.0361,0.0349,0.033,0.0301,0.0289,0.0252,0.0212,0.0181,0.0164,0.0128,0.011,0.0074,0.0105,0.0111,0.0116,0.0129,0.0081,0.0084,0.0053,0.0053,0.0053,0,0,0.0443,0.0431,0.0433,0.0413,0.0393,0.0394,0.0354,0.0345,0.0346,0.0283,0.0274,0.023,0.0179,0.016,0.0147,0.0134,0.0105,0.0116,0.0121,0.0132,0.0081,0.0085,0.0087,0.0053,0.0053,0.0053,0,0,0.0473,0.0463,0.0476,0.0463,0.0442,0.0423,0.0425,0.0389,0.0374,0.0355,0.0313,0.028,0.0228,0.0196,0.0173,0.0185,0.0135,0.017,0.0221,0.0175,0.0177,0.0179,0.0139,0.0137,0.0174,0.0174,0.0174,0,0.0489,0.0503,0.0475,0.0484,0.0486,0.0443,0.046,0.0439,0.0398,0.0391,0.0365,0.0293,0.0247,0.0228,0.0231,0.02,0.0167,0.0205,0.0184,0.0184,0.0185,0.0144,0.014,0.0178,0.0178,0.0177,0.0177,0,0.0526,0.0539,0.0548,0.055,0.0547,0.0555,0.0528,0.0521,0.0497,0.0467,0.0439,0.0372,0.0332,0.0307,0.0273,0.0256,0.0229,0.0197,0.0173,0.0193,0.0148,0.0143,0.0184,0.0182,0.0181,0.018,0,0,0.0559,0.0572,0.0578,0.0598,0.0587,0.0592,0.06,0.0593,0.0608,0.0549,0.0555,0.0482,0.0442,0.0413,0.036,0.0317,0.0284,0.0267,0.0262,0.024,0.0187,0.0172,0.0164,0.0249,0.0248,0.0248,0.0155,0,0.0598,0.0643,0.0634,0.0682,0.0706,0.0683,0.0699,0.0687,0.0661,0.0654,0.0579,0.0557,0.0484,0.0469,0.0415,0.0322,0.0274,0.0313,0.016,0.0156,0.015,0.0159,0.0195,0.0116,0.015,0.0149,0.0148,0,0.0638,0.0666,0.0723,0.0764,0.0773,0.0797,0.0826,0.0833,0.0806,0.0785,0.0742,0.0677,0.0615,0.0546,0.0398,0.0427,0.0319,0.0236,0.0229,0.0186,0.0132,0.0099,0.0104,0.0138,0.0139,0.014,0.0141,0,0.0686,0.0731,0.0787,0.0799,0.0833,0.0862,0.0882,0.0876,0.0902,0.087,0.0884,0.0779,0.0748,0.0597,0.0424,0.0409,0.0259,0.0211,0.0092,0.009,0.0076,0.0074,0.01,0.0101,0.0101,0.0101,0.0101,0,0.0733,0.0776,0.0821,0.0851,0.0934,0.0929,0.1004,0.1004,0.102,0.1072,0.0962,0.0977,0.0759,0.0644,0.0465,0.0275,0.0284,0.0109,0.0067,0.0106,0.0107,0.009,0.009,0.0098,0.0098,0.0099,0.01,0,0.0775,0.0798,0.087,0.093,0.096,0.1021,0.1104,0.1152,0.1155,0.1223,0.1221,0.1127,0.0983,0.0756,0.0517,0.0347,0.015,0.0074,0.014,0.0107,-0.0002,0.0004,-0.0068,-0.0069,-0.007,-0.0071,-0.0072,0,0.0798,0.0842,0.094,0.0995,0.1029,0.1119,0.1186,0.1222,0.1286,0.1326,0.1371,0.1254,0.1202,0.0847,0.0523,0.0209,0.0155,0.0022,-0.0009,0.0016,-0.0018,-0.0011,-0.0005,0.0001,0.0,0.0,0.0,0,0.0848,0.0887,0.0949,0.1069,0.1157,0.1263,0.1365,0.1441,0.1498,0.1557,0.1611,0.1571,0.1259,0.0956,0.0523,0.0302,0.0073,0.001,0.0017,0.0045,0.0075,0.0043,0.0049,-0.0,-0.0,-0.0,-0.0,-0.0,0.089,0.0948,0.1036,0.1151,0.1258,0.1395,0.1489,0.1604,0.1729,0.1829,0.1788,0.1739,0.1405,0.0859,0.0482,0.0072,0.009,-0.0064,-0.0062,-0.006,-0.0028,-0.0001,-0.0084,-0.0085,-0.0085,-0.0085,-0.0086,0,0.094,0.1006,0.1108,0.1247,0.1366,0.1423,0.1599,0.1694,0.1855,0.1946,0.1991,0.1659,0.1327,0.0922,0.0337,-0.0007,-0.0044,-0.0139,-0.0096,-0.0092,-0.0089,-0.0059,-0.0124,-0.0125,-0.0126,-0.0127,0,0,0.0965,0.1063,0.1116,0.1312,0.1415,0.1583,0.1688,0.184,0.1945,0.2025,0.2001,0.1944,0.1466,0.1033,0.0566,0.0226,0.0138,0.0143,0.0215,0.0326,0.0333,-0.0003,0.0055,0,0,0,0,0]}],[{"header":{"parameterUnit":"m.s-1","parameterCategory":2,"la1":30.2991,"la2":30.254,"lo1":-89.0895,"lo2":-89.0444,"dy":0.0017,"dx":0.0017,"nx":28,"ny":28,"refTime":"2024-04-10T21:00:00:Z","depth":"4","parameterNumber":2,"parameterNumberName":"U-component_of_CURRENTS"},"data":[0,0,0,0,0,0,0,0,0,0,0,0,0,0,0,0,0,0,0,0,0,0,0,0,0,0,0,0,0,0,0,0,0,0,0,0,0,0,0,0,0,0,0,0,0,0,0,0,0,0,0,0,0,0,0,0,0,0,0.2412,0.2413,0,0.2471,0.2471,0.2471,0.2523,0.2524,0.2525,0.2526,0.2601,0.2602,0.2604,0,0,0,0,0,0,0,0,0,0,0,0,0,0.2321,0.2323,0.2412,0.2413,0.2414,0.2471,0.2471,0.2472,0.2523,0.2524,0.2525,0.2526,0.2601,0.2602,0.2604,0,0,0,0,0,0,0,0,0,0,0,0,0,0.2366,0.2323,0.2412,0.2449,0.2453,0.247,0.2471,0.2472,0.2523,0.2524,0.2525,0.2527,0.26,0.2602,0.2604,0.2589,0,0,0.2609,0.261,0,0,0,0,0,0,0,0,0.2363,0.2369,0.2442,0.2446,0.2451,0.2494,0.2467,0.2513,0.2523,0.2493,0.2526,0.2527,0.2568,0.2572,0.2576,0.2593,0.2596,0.261,0.2611,0.2611,0.2612,0,0,0,0,0,0,0,0.236,0.2366,0.2432,0.2443,0.2449,0.2454,0.2462,0.2475,0.2521,0.2496,0.2501,0.2511,0.257,0.2574,0.2578,0.2597,0.2609,0.2611,0.2612,0.2613,0.2753,0.2755,0,0,0,0,0,0,0.2359,0.2364,0.2431,0.2434,0.2413,0.2455,0.2464,0.2476,0.252,0.2529,0.251,0.2513,0.257,0.2576,0.2581,0.2691,0.2611,0.2613,0.2614,0.275,0.2753,0.2756,0,0,0,0,0,0,0.2356,0.2364,0.2428,0.2402,0.2411,0.2456,0.2469,0.2477,0.2534,0.2531,0.254,0.2566,0.2572,0.2579,0.2642,0.269,0.2614,0.2616,0.2747,0.2751,0.2755,0.2832,0,0,0,0,0,0,0.2353,0.2363,0.2394,0.2402,0.2413,0.2471,0.2469,0.2477,0.2536,0.2542,0.2581,0.2586,0.2573,0.264,0.2644,0.2691,0.2617,0.2744,0.2749,0.2753,0.2826,0.2838,0.2848,0,0,0,0,0,0.235,0.2376,0.2395,0.2404,0.2447,0.2473,0.248,0.2512,0.2538,0.2568,0.2602,0.2587,0.2674,0.2643,0.2647,0.2696,0.2741,0.2747,0.2753,0.2821,0.2835,0.2848,0,0,0,0,0,0,0.2352,0.2385,0.2405,0.2442,0.2473,0.2484,0.2522,0.2544,0.2593,0.2618,0.2616,0.2624,0.2701,0.2691,0.2657,0.2754,0.2707,0.2714,0.2758,0.2771,0.2782,0.2787,0.2618,0,0,0,0,0,0.2367,0.2403,0.2427,0.2465,0.2485,0.2516,0.2542,0.2566,0.2599,0.2625,0.2651,0.2685,0.2719,0.2741,0.2767,0.2813,0.2809,0.2851,0.2862,0.2871,0.2881,0.2916,0.293,0.2775,0.2775,0.2775,0,0,0.238,0.2405,0.2427,0.247,0.25,0.2532,0.2536,0.2592,0.263,0.2623,0.2704,0.2732,0.2744,0.2802,0.2834,0.2804,0.2917,0.2879,0.2887,0.2891,0.2923,0.2938,0.2951,0.2779,0.2779,0.2778,0,0,0.2402,0.2449,0.2479,0.251,0.2566,0.2583,0.2612,0.2656,0.2696,0.276,0.2776,0.2837,0.288,0.2899,0.291,0.2999,0.2981,0.3018,0.307,0.3104,0.3116,0.3127,0.3148,0.316,0.3015,0.3016,0.3016,0,0.2422,0.2457,0.2494,0.2527,0.2561,0.2612,0.2648,0.269,0.2754,0.2791,0.2803,0.2903,0.2921,0.2983,0.3023,0.3024,0.3038,0.3013,0.3117,0.3127,0.3137,0.3156,0.3168,0.302,0.302,0.3019,0.3019,0,0.2444,0.2494,0.252,0.2578,0.2619,0.2666,0.2718,0.2783,0.2841,0.2873,0.2973,0.3004,0.3058,0.3082,0.3081,0.3169,0.3156,0.313,0.3076,0.3157,0.3172,0.3183,0.3026,0.3025,0.3023,0.3022,0,0,0.2425,0.2516,0.2531,0.2567,0.2654,0.2681,0.2769,0.2841,0.2904,0.2979,0.3053,0.3129,0.3163,0.3181,0.3199,0.3235,0.3324,0.3224,0.3224,0.3234,0.3404,0.3194,0.3185,0.3321,0.3323,0.3325,0.3388,0,0.2436,0.2495,0.2547,0.262,0.2653,0.2736,0.2803,0.2885,0.2962,0.3049,0.311,0.319,0.3193,0.3241,0.3282,0.3324,0.3358,0.3309,0.3334,0.3334,0.3128,0.3192,0.3333,0.3396,0.3398,0.34,0.3402,0,0.2427,0.2472,0.254,0.2636,0.2662,0.2725,0.2848,0.2917,0.3046,0.3109,0.3202,0.3254,0.3353,0.3333,0.3432,0.3406,0.3421,0.3433,0.3435,0.3217,0.3144,0.3299,0.3422,0.342,0.3419,0.3417,0.3416,0,0.2362,0.2463,0.252,0.2554,0.2671,0.274,0.2819,0.2947,0.3018,0.3168,0.3238,0.3338,0.3415,0.3456,0.3504,0.3485,0.3588,0.3549,0.3367,0.3353,0.3488,0.3475,0.3604,0.3604,0.3604,0.3604,0.3604,0,0.2319,0.2372,0.2506,0.2535,0.2619,0.2719,0.2828,0.2924,0.3066,0.3142,0.3275,0.3337,0.3457,0.3525,0.3538,0.3487,0.3614,0.3385,0.3355,0.3521,0.3511,0.3496,0.3482,0.3606,0.3606,0.3605,0.3605,0,0.2232,0.232,0.2396,0.2539,0.2592,0.266,0.2831,0.2892,0.3054,0.3165,0.3221,0.3378,0.3456,0.3537,0.361,0.3508,0.3491,0.3438,0.3628,0.3606,0.3225,0.3215,0.3226,0.322,0.3214,0.3209,0.3205,0,0.2184,0.2216,0.2384,0.2433,0.2513,0.2631,0.27,0.2871,0.2936,0.3151,0.3179,0.333,0.3407,0.3336,0.3439,0.3433,0.3393,0.3354,0.3269,0.3216,0.3188,0.3187,0.3186,0.3195,0.3194,0.3192,0.3191,0,0.2092,0.2182,0.2246,0.235,0.2441,0.2515,0.2637,0.2666,0.2848,0.3022,0.305,0.3079,0.3159,0.3192,0.3217,0.3207,0.3359,0.3292,0.3303,0.3223,0.3179,0.3156,0.3161,0.3171,0.3174,0.3175,0.3177,0,0.2038,0.2063,0.2164,0.2232,0.2337,0.2362,0.2446,0.2506,0.2586,0.2814,0.2814,0.297,0.3121,0.3077,0.31,0.3075,0.3019,0.29,0.2931,0.2954,0.2835,0.2737,0.2571,0,0,0,0,0,0.1961,0.1965,0.2026,0.2085,0.218,0.2237,0.2376,0.246,0.264,0.2584,0.2688,0.2741,0.2761,0.2844,0.2762,0.2994,0.3046,0.2886,0.2929,0.3058,0.3082,0.2966,0,0,0,0,0,0,0.1907,0.1964,0.1972,0.1941,0.1951,0.2029,0.211,0.2235,0.2214,0.2406,0.2432,0.2569,0.2638,0.2775,0.2706,0.2732,0.2699,0.2988,0.298,0.3045,0.3066,0.3085,0.2974,0,0,0,0,0]},{"header":{"parameterUnit":"m.s-1","parameterCategory":2,"la1":30.2991,"la2":30.254,"lo1":-89.0895,"lo2":-89.0444,"dy":0.0017,"dx":0.0017,"nx":28,"ny":28,"refTime":"2024-04-10T21:00:00:Z","depth":"4","parameterNumber":3,"parameterNumberName":"V-component_of_CURRENTS"},"data":[0,0,0,0,0,0,0,0,0,0,0,0,0,0,0,0,0,0,0,0,0,0,0,0,0,0,0,0,0,0,0,0,0,0,0,0,0,0,0,0,0,0,0,0,0,0,0,0,0,0,0,0,0,0,0,0,0,0,0.0308,0.0308,0,0.0268,0.0267,0.0267,0.0249,0.0249,0.0249,0.025,0.0189,0.0187,0.0186,0,0,0,0,0,0,0,0,0,0,0,0,0,0.032,0.032,0.0308,0.0308,0.0307,0.0268,0.0267,0.0267,0.0249,0.0249,0.0249,0.025,0.019,0.0187,0.0185,0,0,0,0,0,0,0,0,0,0,0,0,0,0.03,0.032,0.0308,0.0294,0.0293,0.0268,0.0267,0.0266,0.0249,0.0249,0.0249,0.025,0.019,0.0188,0.0185,0.0165,0,0,0.0177,0.0176,0,0,0,0,0,0,0,0,0.0301,0.03,0.0297,0.0295,0.0294,0.0265,0.0249,0.0232,0.0249,0.0265,0.025,0.025,0.0213,0.0208,0.0199,0.0162,0.0159,0.0177,0.0175,0.0174,0.0173,0,0,0,0,0,0,0,0.0303,0.0301,0.0291,0.0296,0.0294,0.0273,0.0271,0.0246,0.0237,0.0263,0.0262,0.0259,0.0212,0.0202,0.0198,0.0158,0.0177,0.0175,0.0173,0.0172,0.0115,0.0115,0,0,0,0,0,0,0.0312,0.0303,0.0292,0.029,0.0299,0.0273,0.0271,0.0273,0.0238,0.0233,0.0259,0.0258,0.0206,0.0201,0.0195,0.0194,0.0174,0.0172,0.017,0.0114,0.0115,0.0115,0,0,0,0,0,0,0.0313,0.0312,0.0294,0.0296,0.0292,0.0273,0.0276,0.0272,0.0271,0.0235,0.0229,0.0263,0.0206,0.0199,0.0184,0.0191,0.0171,0.0168,0.0114,0.0114,0.0115,0.0175,0,0,0,0,0,0,0.0313,0.0312,0.032,0.0297,0.0293,0.0289,0.0275,0.0271,0.0269,0.0268,0.0236,0.023,0.0206,0.0188,0.0181,0.0187,0.0166,0.0114,0.0114,0.0115,0.0173,0.0177,0.0181,0,0,0,0,0,0.0314,0.0325,0.0321,0.032,0.0303,0.0289,0.0285,0.0271,0.0269,0.0271,0.0252,0.0232,0.0184,0.0186,0.0178,0.0183,0.0114,0.0114,0.0115,0.0171,0.0176,0.0181,0,0,0,0,0,0,0.0334,0.0324,0.0319,0.0326,0.0313,0.0287,0.029,0.0278,0.0264,0.0267,0.0233,0.0226,0.0214,0.0189,0.0192,0.0165,0.0145,0.0143,0.0191,0.0195,0.0199,0.022,0.0164,0,0,0,0,0,0.0343,0.0351,0.0332,0.0339,0.0335,0.0314,0.0309,0.03,0.0282,0.0277,0.0253,0.0228,0.0206,0.0195,0.017,0.0156,0.0126,0.0152,0.0156,0.016,0.0171,0.0127,0.0128,0.0115,0.0115,0.0115,0,0,0.0353,0.0348,0.0353,0.0344,0.0334,0.0337,0.0312,0.031,0.0314,0.0272,0.0271,0.0242,0.0205,0.0192,0.0184,0.0174,0.0147,0.016,0.0164,0.0173,0.0127,0.0128,0.0129,0.0115,0.0115,0.0115,0,0,0.0375,0.0374,0.0386,0.0381,0.0371,0.036,0.0364,0.0343,0.0336,0.0327,0.0299,0.0276,0.0242,0.0218,0.0201,0.021,0.0169,0.02,0.0237,0.0194,0.0195,0.0196,0.0158,0.0154,0.0201,0.0202,0.0202,0,0.0388,0.0402,0.0387,0.0396,0.0401,0.0376,0.0391,0.0378,0.0355,0.0352,0.0337,0.0289,0.0255,0.024,0.0243,0.022,0.0191,0.0225,0.02,0.02,0.0199,0.016,0.0156,0.0204,0.0204,0.0204,0.0204,0,0.0414,0.043,0.0438,0.0446,0.0447,0.0456,0.0441,0.044,0.0429,0.041,0.0393,0.0344,0.0318,0.0298,0.0274,0.0256,0.0236,0.0212,0.0193,0.0205,0.0162,0.0157,0.0209,0.0208,0.0207,0.0206,0,0,0.0434,0.0454,0.0459,0.0479,0.0478,0.0485,0.0495,0.0494,0.0508,0.047,0.0477,0.0425,0.0398,0.0377,0.0336,0.0297,0.0263,0.0261,0.0257,0.0232,0.0173,0.0156,0.0148,0.0235,0.0235,0.0234,0.0145,0,0.0462,0.0499,0.0499,0.0542,0.0562,0.0553,0.0569,0.0565,0.055,0.0548,0.0493,0.0481,0.0428,0.042,0.0372,0.0296,0.0251,0.029,0.0158,0.0154,0.0145,0.0142,0.0232,0.014,0.0139,0.0138,0.0137,0,0.0487,0.0513,0.0562,0.0603,0.0612,0.0638,0.0668,0.0677,0.0661,0.0649,0.0619,0.0572,0.0521,0.0471,0.0343,0.0372,0.0282,0.0213,0.0207,0.017,0.0128,0.0123,0.0126,0.0127,0.0128,0.0128,0.0129,0,0.0514,0.0559,0.0608,0.062,0.0657,0.0688,0.0711,0.0712,0.0736,0.0717,0.0729,0.0646,0.0622,0.0498,0.0354,0.0348,0.0207,0.0176,0.0073,0.0071,0.0086,0.0086,0.0079,0.008,0.008,0.008,0.008,0,0.054,0.058,0.0633,0.0659,0.0733,0.0739,0.0807,0.0812,0.0831,0.0869,0.0792,0.0794,0.0628,0.0525,0.038,0.0216,0.0221,0.0083,0.0047,0.0113,0.0117,0.0081,0.0083,0.0077,0.0077,0.0078,0.0079,0,0.0558,0.0588,0.0653,0.0717,0.0749,0.0804,0.0888,0.0927,0.0939,0.0987,0.0989,0.0907,0.0775,0.0595,0.0391,0.0262,0.0095,0.0031,0.0124,0.0094,-0.0021,-0.0015,-0.0091,-0.0092,-0.0093,-0.0094,-0.0095,0,0.0567,0.0605,0.0706,0.0756,0.0795,0.088,0.0942,0.0984,0.1032,0.1055,0.1082,0.0977,0.0897,0.0609,0.0405,0.0122,0.0074,-0.002,-0.0032,-0.001,-0.0038,-0.0031,-0.0024,-0.0096,-0.0097,-0.0097,-0.0097,0,0.0588,0.0633,0.0689,0.0799,0.0883,0.0977,0.1069,0.1113,0.1164,0.1178,0.1157,0.1008,0.0859,0.0619,0.0399,0.0193,0.0037,-0.0032,-0.0032,-0.0044,-0.0018,-0.0043,-0.0035,-0.0101,-0.0101,-0.01,-0.01,0,0.0611,0.0656,0.0739,0.0837,0.0945,0.1046,0.1092,0.1153,0.1204,0.1228,0.1217,0.1055,0.0961,0.0655,0.0455,0.025,0.0187,0.0104,0.0096,0.0097,0.017,0.0231,0.0199,0,0,0,0,0,0.0628,0.0679,0.0766,0.0875,0.0983,0.1052,0.1165,0.12,0.1258,0.1252,0.1238,0.1098,0.0807,0.0684,0.0477,0.0411,0.0137,0.0157,0.0034,-0.0122,-0.0118,-0.0067,0,0,0,0,0,0,0.0635,0.0717,0.0761,0.0895,0.0971,0.1097,0.1174,0.121,0.1209,0.1229,0.1083,0.1025,0.0744,0.0926,0.0466,0.0406,0.0292,0.0029,0.0024,-0.0125,-0.0121,-0.0117,-0.0064,0,0,0,0,0]}]]